Simultaneous Nadir Overpasses (SNOs) Predictions

Prediction of SNOs between AURA and NPP Satellite Orbit:

Table of predicted SNOs for the next 14.0 days since TLE Epoch: 7/10/2021
Index Date (AURA) Time (AURA) Lat,Lon (AURA) SZA (AURA ) Date (NPP) Time (NPP) Lat,Lon (NPP) SZA (NPP ) Distance(km) Time Diff (sec)
1 07/12/2021 02:51:55 79.26, 32.18 71.43 07/12/2021 02:51:04 79.25, 32.09 71.49 2.16 51
2 07/12/2021 03:41:15 -79.53,-158.34 108.97 07/12/2021 03:41:41 -79.53,-158.36 108.99 0.44 26
3 07/14/2021 19:08:21 79.39, 148.96 71.64 07/14/2021 19:07:57 79.39, 148.97 71.65 0.19 24
4 07/14/2021 19:57:41 -79.67, -41.50 108.77 07/14/2021 19:58:34 -79.67, -41.42 108.83 1.65 53
5 07/17/2021 10:35:40 -78.78, 93.47 107.06 07/17/2021 10:34:26 -78.82, 93.31 106.99 5.31 74
6 07/17/2021 11:24:47 79.52, -94.26 71.88 07/17/2021 11:24:50 79.53, -94.13 71.86 2.83 3
7 07/20/2021 02:51:55 -79.32,-147.41 107.34 07/20/2021 02:51:08 -79.32,-147.35 107.32 1.47 47
8 07/20/2021 03:41:15 79.54, 21.71 72.35 07/20/2021 03:41:46 79.54, 21.69 72.33 0.35 31
9 07/22/2021 19:08:23 -79.37, -31.20 106.89 07/22/2021 19:08:04 -79.37, -31.26 106.87 1.34 19



Historial Predications of SNOs between AURA and NPP
